Weather Roundup
Issued by NWS Chicago, IL

Home | Current Version | Previous Version | Text Only | Print | Product List | Glossary Off
Versions: 1 2 3 4 5 6 7 8 9 10 11 12 13 14 15 16 17 18 19 20 21 22 23 24 25 26 27 28 29 30 31 32 33 34 35 36 37 38 39 40 41 42 43 44 45 46 47 48 49 50

000
NZUS59 KLOT 222103
HRRLOT

CHICAGO AREA WEATHER ROUNDUP
NATIONAL WEATHER SERVICE CHICAGO/ROMEOVILLE IL
300 PM CST WED NOV 22 2017

NOTE: "FAIR" INDICATES FEW OR NO CLOUDS BELOW 12,000 FEET WITH NO
SIGNIFICANT WEATHER AND/OR OBSTRUCTIONS TO VISIBILITY.

* THESE STATIONS ARE NOT UNDER NWS QUALITY CONTROL. THEY ALSO MAY NOT
  REPORT WEATHER SUCH AS PRECIPITATION OR FOG.

ILZ005-006-012>014-019>023-222200-
NORTHEAST ILLINOIS

CITY           SKY/WX    TMP DP  RH WIND       PRES   REMARKS
OHARE          PTSUNNY   34  14  43 W8        30.26S WCI  27
MIDWAY         NOT AVBL
AURORA         SUNNY     33  17  51 SW10      30.27F WCI  25
LANSING*       SUNNY     34  18  51 SW6       30.27F WCI  29
JOLIET*        SUNNY     35  18  50 W5        30.29S WCI  31
WAUKEGAN       SUNNY     33  14  45 VRB7      30.25S WCI  27
DUPAGE AIRPORT SUNNY     33  17  51 SW8       30.26S WCI  26
WHEELING       SUNNY     34  15  46 W7        30.28S WCI  28
KANKAKEE*      SUNNY     34  16  47 W5        30.29F WCI  30
MORRIS*        SUNNY     33  17  50 W6        30.28S WCI  28
LEWIS AIRPORT* SUNNY     33  17  51 W7        30.28S WCI  27
NORTHERLY ISL    N/A     35  13  40 SW5         N/A  WCI  31
$$

WIZ051-052-058>065-066-070>072-222200-
SOUTHEAST WISCONSIN

CITY           SKY/WX    TMP DP  RH WIND       PRES   REMARKS
MILWAUKEE      CLOUDY    33  15  47 SW8       30.24F WCI  26
KENOSHA*       CLOUDY    33  15  47 SW9       30.24F WCI  25
RACINE*        CLOUDY    33  15  47 SW13      30.26F WCI  24
WAUKESHA       SUNNY     30  12  47 W7        30.23F WCI  23
WEST BEND      CLOUDY    30  14  51 W8        30.22F WCI  23
$$

INZ001>003-010>013-019-020-222200-
NORTHWEST INDIANA

CITY           SKY/WX    TMP DP  RH WIND       PRES   REMARKS
GARY*          MOSUNNY   36  10  35 W7        30.28F
MICHIGAN CITY* NOT AVBL
RENSSELAER*    NOT AVBL
VALPARAISO     SUNNY     37  18  46 W5        30.26F
$$

LMZ740>746-222200-
SOUTHERN LAKE MICHIGAN

STATION/POSITION TIME  SKY/WX   TEMP WIND        PRES    VSBY
                                AIR  DIR/SP/G
                 (UTC)          (F)  (DEG/KT/KT) (MB)    (MI)
HARRISON CRIB    2010            34  260/  5/  6   N/A
BURNHAM HARBOR   2100            35  250/  3/  8   N/A
CALUMET HARBOR   2030            35  200/  3/  7 1024.2F
BURNS HARBOR     2040            34  290/  4/  6 1025.4F
MICHIGAN CITY    2040            33  260/  5/  7   N/A
$$

ABBREVIATIONS USED IN REMARKS
   TC - TEMPERATURE IN CELSIUS
  WCI - WIND CHILL INDEX
   HX - HEAT INDEX
  VSB - VISIBILITY
$$



USA.gov is the U.S. government's official web portal to all federal, state and local government web resources and services.